OBJECT B, 61228

Orbit data source: Space-Track

You're viewing an Uncataloged Satellite

Recently launched and/or uncataloged satellites may have evolving metadata. Metadata may include but not limited to: Owner, Maufacturer, Bus, Motor, and Mission.

OBJECT B, 61228 is a satellite owned by Fudan Univ (CN) in SSO that was launched on Tue, 24 Sep 2024 UTC via a JIELONG-3 launch vehicle from the Yellow Sea Launch Area, China (YSLA). Unknown objects in Earth's orbit typically refer to objects detected orbiting the Earth but have not yet been identified or cataloged. These objects could be anything from previously untracked satellites, spent rocket stages, debris from satellite collisions, or even natural meteoroids temporarily captured by Earth's gravity.

Loading next visibility...
OBJECT B details
Identifier
61228, 2024-173B
Orbit
SSO
Last TLE update9 hours ago
Origin
Flag of CNFudan Univ (CN / PRC)
ManufacturerSATC
MissionOperational spacecraft
Bus & MotorFUDAN-1, Unknown motor
Mass50 kg wet, 50 kg dry
Launch date (UTC)
2024-09-24 (3 months ago)
Launch vehicle
JIELONG-3
Launch site
Yellow Sea Launch Area, China (YSLA)
Object typeUnknown
Shape & HBRUnknown
Radar Cross SectionMedium (>0.1 m² and <1 m²)

Expand to show TLE details & history

TLE from 9 hours ago
0 OBJECT B
1 61228U 24173B   24356.14334088  .00029330  00000-0  94548-3 0  9997
2 61228  97.3941  68.3775 0009859 331.2862  28.7836 15.32082504 13431
Epoch: 2024-12-21T03:26Z
Definitive object data (Epoch: 2024-12-21T03:26:24.652Z)
Latitude0.00003°
Longitude-73.42395°
Altitude466.79 km
Speed7.636 km/s
True Right ascension04h 33m 30s
True Declination0° 00' 00"
Sunlit
Object was in full shadow at TLE epoch
Visualization TLE readout
Latitude-6.24872°
Longitude106.12611°
Altitude479.118 km
Speed7.623 km/s
Apparent Right ascension19h 06m 05s
Apparent Declination-31° 48' 26"
Sunlit
Object is in daylight
Visualization observer readout
Local Sidereal Time11:07:01
Azimuth100.26° ESE
Elevation-41.436°
Doppler factor1
Orbital elements
Apogee altitude473.297 km
Perigee altitude459.801 km
Semi-major axis6,844.686 km
Eccentricity0.0009859
Inclination97.3941°
RAAN68.3775°
Arg. of periapsis331.2862°
True anomaly28.83806°
Mean anomaly28.7836°
Eccentric anomaly28.81082°
Mean motion3.83277 °/min
BSTAR0.00094548
Orbital period93.93 mins
Loading maneuver chart data...
Loading historical data...
Loading historical data...
Loading historical data...
Loading historical data...
Loading historical data...
Loading historical data...
Loading historical data...

OBJECT B Visibility forecast

Observer location: undefined°, undefined

Span
Click to sort rows by Start time (UTC) header in descending order
Start Az.
Max El. time (UTC)
Max El. Az.
Max El.
End time (UTC)
End Az.
6 mins2024-12-21 18:06:17.250Z3.292° NNE2024-12-21 18:09:17.250Z274.551° WNW41.365°2024-12-21 18:12:17.250Z204.496° SW
4 mins2024-12-22 04:40:17.250Z126.612° SE2024-12-22 04:42:17.250Z60.925° ENE30.53°2024-12-22 04:44:17.250Z12.712° NNE
|